Flag for France Weather past 2 weeks in Biarritz, France

Now
64 °F

Passing clouds.


Feels Like: 64 °F
Forecast: 46 / 64 °F
Wind: 3 mph from North

Location: Biarritz Airport

Current Time: Oct 22, 2014 at 2:38:32 PM

Latest Report: Oct 22, 2014 at 2:00 PM


Visibility: N/A

Pressure: 30.45 "Hg

Humidity: 49%

Dew point: 45 °F

Location of BiarritzLocation

Historic Weather in Biarritz — Graph

°F

Biarritz temperature yesterday

Maximum temperature yesterday: 72 °F (at 1:00 PM)
Minimum temperature yesterday: 61 °F (at 8:30 AM)
Average temperature yesterday: 66 °F

Past Weeks' High & Low Weather Summary

 TemperatureHumidityPressure
High86 °F (Oct 18, 3:00 PM)100% (Oct 9, 11:13 AM)30.48 "Hg (Oct 9, 11:13 AM)
Low54 °F (Oct 22, 8:30 AM)29% (Oct 18, 3:00 PM)29.56 "Hg (Oct 12, 5:30 AM)
Average67 °F72%29.92 "Hg
* Reported Oct 7 1:30 PM — Oct 22 1:30 PM, Biarritz, Weather by CustomWeather, © 2014

Note: Actual official high and low records may vary slightly from our data, if they occured in-between our weather recording intervals... More about our weather records

Advertising

Biarritz weather history for previous 24 hours

 ConditionsComfort  
Time TempWeatherWind HumidityBarometerVisibility
1:30 PM
Oct 22
63 °FPassing clouds.5 mph52%30.48 "HgN/A
1:00 PM63 °FPassing clouds.5 mph56%30.48 "HgN/A
12:30 PM61 °FPassing clouds.7 mph59%30.48 "HgN/A
12:00 PM61 °FPassing clouds.9 mph55%30.48 "HgN/A
11:30 AM59 °FPassing clouds.10 mph59%30.48 "HgN/A
11:00 AM57 °FPassing clouds.9 mph67%30.48 "HgN/A
10:30 AM57 °FScattered clouds.10 mph72%30.48 "HgN/A
10:00 AM57 °FPartly sunny.5 mph77%30.48 "HgN/A
9:30 AM55 °FScattered clouds.3 mph82%30.45 "HgN/A
9:00 AM54 °FPassing clouds.3 mph88%30.45 "HgN/A
8:30 AM54 °FPartly cloudy.3 mph88%30.45 "HgN/A
8:00 AM55 °FPassing clouds.6 mph88%30.45 "HgN/A
7:30 AM55 °FPassing clouds.5 mph77%30.45 "HgN/A
7:00 AM57 °FPassing clouds.3 mph67%30.45 "HgN/A
6:30 AM57 °FOvercast.No wind63%30.45 "HgN/A
6:09 AM59 °FOvercast.No wind59%30.45 "HgN/A
6:00 AM59 °FOvercast.No wind59%30.45 "HgN/A
5:30 AM57 °FOvercast.2 mph72%30.45 "HgN/A
5:00 AM57 °FMostly cloudy.2 mph77%30.45 "HgN/A
4:30 AM61 °FMostly cloudy.2 mph59%30.45 "HgN/A
4:00 AM61 °FOvercast.5 mph59%30.45 "HgN/A
3:30 AM61 °FOvercast.6 mph63%30.45 "HgN/A
2:30 AM63 °FOvercast.8 mph59%30.45 "HgN/A
2:00 AM63 °FOvercast.8 mph59%30.42 "HgN/A
1:30 AM63 °FOvercast.8 mph64%30.42 "HgN/A
1:00 AM63 °FMostly cloudy.13 mph68%30.42 "HgN/A
12:30 AM63 °FMostly cloudy.12 mph73%30.42 "HgN/A
12:00 AM63 °FMostly cloudy.9 mph77%30.42 "HgN/A
11:30 PM
Oct 21
64 °FPassing clouds.10 mph73%30.39 "HgN/A
11:00 PM64 °FPartly cloudy.8 mph83%30.39 "HgN/A
10:30 PM63 °FPartly cloudy.8 mph88%30.39 "HgN/A
10:00 PM64 °FMostly cloudy.8 mph88%30.39 "HgN/A
9:30 PM66 °FMostly cloudy.13 mph78%30.36 "HgN/A
9:00 PM66 °FOvercast.15 mph78%30.36 "HgN/A
8:30 PM64 °FPartly cloudy.13 mph83%30.36 "HgN/A
8:00 PM64 °FScattered clouds.14 mph78%30.36 "HgN/A
7:30 PM64 °FScattered clouds.13 mph83%30.33 "HgN/A
7:00 PM66 °FScattered clouds.13 mph78%30.33 "HgN/A
6:30 PM66 °FBroken clouds.14 mph78%30.30 "HgN/A
6:00 PM66 °FBroken clouds.13 mph83%30.30 "HgN/A
5:30 PM68 °FBroken clouds.14 mph83%30.30 "HgN/A
5:00 PM68 °FPartly sunny.14 mph83%30.30 "HgN/A
4:30 PM68 °FPartly sunny.13 mph83%30.27 "HgN/A
4:00 PM70 °FPartly sunny.17 mph78%30.27 "HgN/A
3:30 PM70 °FScattered clouds.16 mph78%30.27 "HgN/A
3:00 PM70 °FPartly sunny.15 mph83%30.27 "HgN/A
2:30 PM70 °FPartly sunny.14 mph83%30.27 "HgN/A
2:00 PM70 °FPartly sunny.13 mph78%30.27 "HgN/A
Weather by CustomWeather, © 2014

See weather overviewHow to use our weather pages